Regional Weather Roundup
Issued by NWS Green Bay, WI

Home | Current Version | Previous Version | Graphics & Text | Print | Product List | Glossary Off
Versions: 1 2 3 4 5 6 7 8 9 10 11 12 13 14 15 16 17 18 19 20 21 22 23 24 25 26 27 28 29 30 31 32 33 34 35 36 37 38 39 40 41 42 43 44 45 46 47 48 49 50

000
ASUS43 KGRB 221810
RWRGRB

NORTH-CENTRAL AND NORTHEAST WISCONSIN REGIONAL WEATHER ROUNDUP
NATIONAL WEATHER SERVICE GREEN BAY WI
100 PM CDT FRI AUG 22 2014

WIZ005-009-010>012-018-019-221900-
NORTH CENTRAL WISCONSIN

CITY           SKY/WX    TMP DP  RH WIND       PRES   REMARKS
IRONWOOD       CLOUDY    72  68  88 N3        29.95S
MANITOWISH WTR CLOUDY    69  68  98 SE3       29.99S
ARBOR VITAE    CLOUDY    77  74  92 SE3       29.99S
EAGLE RIVER    LGT RAIN  70  68  93 CALM      30.00S
LAND O LAKES   CLOUDY    72  67  86 E3        30.01S
RHINELANDER    CLOUDY    71  68  90 E6        30.00S
PHILLIPS       CLOUDY    70  69  95 CALM      29.98R
ANTIGO         FOG       67  67 100 SE5       30.00S VSB 1
TOMAHAWK       CLOUDY    71  68  89 CALM      29.99R
MERRILL        CLOUDY    70  70  99 SE3       29.98S FOG
$$

WIZ013-073-221900-
NORTHEAST WISCONSIN

CITY           SKY/WX    TMP DP  RH WIND       PRES   REMARKS
IRON MOUNTAIN  CLOUDY    69  66  90 SE7       29.99S
MARINETTE      CLOUDY    72  66  83 SE6       29.98S
OCONTO         CLOUDY    73  71  92 E5        29.98S
$$

WIZ017-030-035>037-045-221900-
CENTRAL WISCONSIN

CITY           SKY/WX    TMP DP  RH WIND       PRES   REMARKS
MEDFORD        FOG       71  71  99 S5        29.98S VSB 1/2
WAUSAU         LGT RAIN  75  71  87 S5        29.95F
MOSINEE        CLOUDY    73  73 100 CALM      29.98S FOG
MARSHFIELD     CLOUDY    77  73  87 S8        29.96S
WISC RAPIDS    PTSUNNY   83  73  72 SW10      29.96F
STEVENS POINT  CLOUDY    78  72  82 S5        29.96F
WAUPACA        PTSUNNY   83  74  73 S3        29.96S HX  90
SHAWANO        CLOUDY    74  70  87 CALM      29.97F FOG
CLINTONVILLE   CLOUDY    77  70  78 E3        29.96F HAZE
$$

WIZ038-039-048-051-221900-
FOX VALLEY

CITY           SKY/WX    TMP DP  RH WIND       PRES   REMARKS
NWS GREEN BAY  PTSUNNY   79  72  79 S7        29.97S
APPLETON       PTSUNNY   79  73  83 SE8       29.97S FOG
OSHKOSH        MOSUNNY   80  74  81 E6        29.95F
FOND DU LAC    SUNNY     84  72  67 S7        29.95F
$$

WIZ022-050-052-221900-
EAST CENTRAL WISCONSIN

CITY           SKY/WX    TMP DP  RH WIND       PRES   REMARKS
STURGEON BAY   CLOUDY    72  68  88 SE8       30.00S
MANITOWOC      CLOUDY    73  71  93 E8        29.98S
SHEBOYGAN      CLOUDY    77  71  82 VRB3      29.97S
$$

LMZ563-521-522-541>543-221900-
LAKESHORE

STATION/POSITION TIME  TEMP    WIND        PRES    VSBY  WAVE
                       AIR SEA DIR/SP/G                  HT/PER
                 (UTC) (F)     (DEG/KT/KT) (MB)    (MI)  (FT/S)
SHEBOYGAN LKSHOR 1800   68 65  140/  4/  5 1015.1S
KEWAUNEE LKSHORE 1800   68      90/  2/  3 1014.5F
NORTHPORT PIER   1800   66     120/  4/  5 1015.6S
N MID LAKE BUOY  1800   68 66  150/  4/  4 1015.2R         0
S GREEN BAY BUOY 1800   70     VRB  6      1016.0F
SISTER BAY LKSHO 1700   77     180/  7/ 10   N/A
CHAMBERS ISLAND  1800   71     340/  2/  3 1015.6S
MENOMINEE LKSHOR 1800   68      30/  5/  6 1016.0R
$$


USA.gov is the U.S. government's official web portal to all federal, state and local government web resources and services.